Year,Month,Day,Hour,Minute,Value (Times are PST for temperature in C)
2013,04,02,00,00,8.10
2013,04,02,00,01,8.10
2013,04,02,00,02,8.00
2013,04,02,00,03,8.00
2013,04,02,00,04,7.90
2013,04,02,00,05,7.90
2013,04,02,00,06,7.90
2013,04,02,00,07,7.90
2013,04,02,00,08,7.80
2013,04,02,00,09,7.80
2013,04,02,00,10,7.80
2013,04,02,00,11,7.80
2013,04,02,00,12,7.80
2013,04,02,00,13,7.80
2013,04,02,00,14,7.80
2013,04,02,00,15,7.80
2013,04,02,00,16,7.80
2013,04,02,00,17,7.80
2013,04,02,00,18,7.80
2013,04,02,00,19,7.70
2013,04,02,00,20,7.70
2013,04,02,00,21,7.70
2013,04,02,00,22,7.70
2013,04,02,00,23,7.70
2013,04,02,00,24,7.70
2013,04,02,00,25,7.70
2013,04,02,00,26,7.70
2013,04,02,00,27,7.70
2013,04,02,00,28,7.70
2013,04,02,00,29,7.70
2013,04,02,00,30,7.60
2013,04,02,00,31,7.60
2013,04,02,00,32,7.60
2013,04,02,00,33,7.60
2013,04,02,00,34,7.60
2013,04,02,00,35,7.60
2013,04,02,00,36,7.60
2013,04,02,00,37,7.50
2013,04,02,00,38,7.50
2013,04,02,00,39,7.50
2013,04,02,00,40,7.40
2013,04,02,00,41,7.40
2013,04,02,00,42,7.40
2013,04,02,00,43,7.30
2013,04,02,00,44,7.30
2013,04,02,00,45,7.30
2013,04,02,00,46,7.20
2013,04,02,00,47,7.20
2013,04,02,00,48,7.20
2013,04,02,00,49,7.20
2013,04,02,00,50,7.20
2013,04,02,00,51,7.20
2013,04,02,00,52,7.10
2013,04,02,00,53,7.10
2013,04,02,00,54,7.10
2013,04,02,00,55,7.10
2013,04,02,00,56,7.00
2013,04,02,00,57,7.00
2013,04,02,00,58,7.00
2013,04,02,00,59,6.90
2013,04,02,01,00,6.90
2013,04,02,01,01,6.90
2013,04,02,01,02,6.90
2013,04,02,01,03,6.90
2013,04,02,01,04,6.80
2013,04,02,01,05,6.80
2013,04,02,01,06,6.80
2013,04,02,01,07,6.80
2013,04,02,01,08,6.70
2013,04,02,01,09,6.70
2013,04,02,01,10,6.70
2013,04,02,01,11,6.70
2013,04,02,01,12,6.70
2013,04,02,01,13,6.70
2013,04,02,01,14,6.70
2013,04,02,01,15,6.70
2013,04,02,01,16,6.70
2013,04,02,01,17,6.70
2013,04,02,01,18,6.60
2013,04,02,01,19,6.60
2013,04,02,01,20,6.60
2013,04,02,01,21,6.60
2013,04,02,01,22,6.60
2013,04,02,01,23,6.60
2013,04,02,01,24,6.60
2013,04,02,01,25,6.50
2013,04,02,01,26,6.50
2013,04,02,01,27,6.50
2013,04,02,01,28,6.50
2013,04,02,01,29,6.40
2013,04,02,01,30,6.40
2013,04,02,01,31,6.40
2013,04,02,01,32,6.40
2013,04,02,01,33,6.40
2013,04,02,01,34,6.40
2013,04,02,01,35,6.40
2013,04,02,01,36,6.30
2013,04,02,01,37,6.30
2013,04,02,01,38,6.30
2013,04,02,01,39,6.30
2013,04,02,01,40,6.30
2013,04,02,01,41,6.30
2013,04,02,01,42,6.20
2013,04,02,01,43,6.20
2013,04,02,01,44,6.20
2013,04,02,01,45,6.20
2013,04,02,01,46,6.20
2013,04,02,01,47,6.20
2013,04,02,01,48,6.10
2013,04,02,01,49,6.10
2013,04,02,01,50,6.10
2013,04,02,01,51,6.10
2013,04,02,01,52,6.00
2013,04,02,01,53,6.00
2013,04,02,01,54,5.90
2013,04,02,01,55,5.90
2013,04,02,01,56,5.90
2013,04,02,01,57,5.90
2013,04,02,01,58,5.80
2013,04,02,01,59,5.80
2013,04,02,02,00,5.80
2013,04,02,02,01,5.80
2013,04,02,02,02,5.80
2013,04,02,02,03,5.80
2013,04,02,02,04,5.80
2013,04,02,02,05,5.70
2013,04,02,02,06,5.70
2013,04,02,02,07,5.70
2013,04,02,02,08,5.70
2013,04,02,02,09,5.70
2013,04,02,02,10,5.70
2013,04,02,02,11,5.70
2013,04,02,02,12,5.70
2013,04,02,02,13,5.60
2013,04,02,02,14,5.60
2013,04,02,02,15,5.60
2013,04,02,02,16,5.60
2013,04,02,02,17,5.60
2013,04,02,02,18,5.60
2013,04,02,02,19,5.60
2013,04,02,02,20,5.60
2013,04,02,02,21,5.60
2013,04,02,02,22,5.50
2013,04,02,02,23,5.50
2013,04,02,02,24,5.50
2013,04,02,02,25,5.50
2013,04,02,02,26,5.50
2013,04,02,02,27,5.40
2013,04,02,02,28,5.40
2013,04,02,02,29,5.40
2013,04,02,02,30,5.40
2013,04,02,02,31,5.40
2013,04,02,02,32,5.40
2013,04,02,02,33,5.40
2013,04,02,02,34,5.30
2013,04,02,02,35,5.30
2013,04,02,02,36,5.30
2013,04,02,02,37,5.30
2013,04,02,02,38,5.30
2013,04,02,02,39,5.20
2013,04,02,02,40,5.20
2013,04,02,02,41,5.20
2013,04,02,02,42,5.20
2013,04,02,02,43,5.20
2013,04,02,02,44,5.20
2013,04,02,02,45,5.20
2013,04,02,02,46,5.20
2013,04,02,02,47,5.20
2013,04,02,02,48,5.20
2013,04,02,02,49,5.20
2013,04,02,02,50,5.20
2013,04,02,02,51,5.20
2013,04,02,02,52,5.10
2013,04,02,02,53,5.20
2013,04,02,02,54,5.20
2013,04,02,02,55,5.20
2013,04,02,02,56,5.20
2013,04,02,02,57,5.20
2013,04,02,02,58,5.20
2013,04,02,02,59,5.20
2013,04,02,03,00,5.10
2013,04,02,03,01,5.10
2013,04,02,03,02,5.10
2013,04,02,03,03,5.10
2013,04,02,03,04,5.10
2013,04,02,03,05,5.10
2013,04,02,03,06,5.10
2013,04,02,03,07,5.10
2013,04,02,03,08,5.10
2013,04,02,03,09,5.10
2013,04,02,03,10,5.10
2013,04,02,03,11,5.10
2013,04,02,03,12,5.10
2013,04,02,03,13,5.10
2013,04,02,03,14,5.10
2013,04,02,03,15,5.10
2013,04,02,03,16,5.10
2013,04,02,03,17,5.10
2013,04,02,03,18,5.10
2013,04,02,03,19,5.10
2013,04,02,03,20,5.10
2013,04,02,03,21,5.10
2013,04,02,03,22,5.10
2013,04,02,03,23,5.10
2013,04,02,03,24,5.10
2013,04,02,03,25,5.10
2013,04,02,03,26,5.10
2013,04,02,03,27,5.10
2013,04,02,03,28,5.10
2013,04,02,03,29,5.10
2013,04,02,03,30,5.10
2013,04,02,03,31,5.10
2013,04,02,03,32,5.10
2013,04,02,03,33,5.10
2013,04,02,03,34,5.10
2013,04,02,03,35,5.10
2013,04,02,03,36,5.10
2013,04,02,03,37,5.20
2013,04,02,03,38,5.20
2013,04,02,03,39,5.20
2013,04,02,03,40,5.20
2013,04,02,03,41,5.30
2013,04,02,03,42,5.30
2013,04,02,03,43,5.30
2013,04,02,03,44,5.30
2013,04,02,03,49,5.60
2013,04,02,03,50,5.60
2013,04,02,03,51,5.70
2013,04,02,03,52,5.70
2013,04,02,03,53,5.70
2013,04,02,03,54,5.80
2013,04,02,03,55,5.80
2013,04,02,03,56,5.90
2013,04,02,03,57,5.90
2013,04,02,03,58,6.00
2013,04,02,03,59,6.00
2013,04,02,04,00,6.00
2013,04,02,04,01,6.10
2013,04,02,04,02,6.10
2013,04,02,04,03,6.10
2013,04,02,04,04,6.20
2013,04,02,04,05,6.20
2013,04,02,04,06,6.20
2013,04,02,04,07,6.20
2013,04,02,04,08,6.20
2013,04,02,04,09,6.20
2013,04,02,04,10,6.20
2013,04,02,04,11,6.10
2013,04,02,04,12,6.10
2013,04,02,04,13,6.10
2013,04,02,04,14,6.10
2013,04,02,04,15,6.00
2013,04,02,04,16,5.90
2013,04,02,04,17,5.90
2013,04,02,04,18,5.80
2013,04,02,04,19,5.70
2013,04,02,04,20,5.60
2013,04,02,04,21,5.60
2013,04,02,04,22,5.50
2013,04,02,04,23,5.50
2013,04,02,04,24,5.40
2013,04,02,04,25,5.40
2013,04,02,04,26,5.30
2013,04,02,04,27,5.30
2013,04,02,04,28,5.30
2013,04,02,04,29,5.20
2013,04,02,04,30,5.10
2013,04,02,04,31,5.10
2013,04,02,04,32,5.00
2013,04,02,04,33,5.00
2013,04,02,04,34,4.90
2013,04,02,04,35,4.90
2013,04,02,04,36,4.80
2013,04,02,04,37,4.80
2013,04,02,04,38,4.80
2013,04,02,04,39,4.80
2013,04,02,04,40,4.80
2013,04,02,04,41,4.80
2013,04,02,04,42,4.80
2013,04,02,04,43,4.80
2013,04,02,04,44,4.80
2013,04,02,04,45,4.80
2013,04,02,04,46,4.80
2013,04,02,04,47,4.70
2013,04,02,04,48,4.70
2013,04,02,04,49,4.60
2013,04,02,04,50,4.60
2013,04,02,04,51,4.60
2013,04,02,04,52,4.60
2013,04,02,04,53,4.50
2013,04,02,04,54,4.50
2013,04,02,04,55,4.50
2013,04,02,04,56,4.50
2013,04,02,04,57,4.50
2013,04,02,04,58,4.40
2013,04,02,04,59,4.40
2013,04,02,05,00,4.40
2013,04,02,05,01,4.30
2013,04,02,05,02,4.30
2013,04,02,05,03,4.30
2013,04,02,05,04,4.30
2013,04,02,05,05,4.30
2013,04,02,05,06,4.20
2013,04,02,05,07,4.20
2013,04,02,05,08,4.20
2013,04,02,05,09,4.20
2013,04,02,05,10,4.20
2013,04,02,05,11,4.20
2013,04,02,05,12,4.20
2013,04,02,05,13,4.20
2013,04,02,05,14,4.20
2013,04,02,05,15,4.20
2013,04,02,05,16,4.20
2013,04,02,05,17,4.20
2013,04,02,05,18,4.10
2013,04,02,05,19,4.10
2013,04,02,05,20,4.10
2013,04,02,05,21,4.10
2013,04,02,05,22,4.10
2013,04,02,05,23,4.20
2013,04,02,05,24,4.20
2013,04,02,05,25,4.20
2013,04,02,05,26,4.20
2013,04,02,05,27,4.20
2013,04,02,05,28,4.30
2013,04,02,05,29,4.30
2013,04,02,05,30,4.30
2013,04,02,05,31,4.30
2013,04,02,05,32,4.40
2013,04,02,05,33,4.40
2013,04,02,05,34,4.40
2013,04,02,05,35,4.30
2013,04,02,05,36,4.30
2013,04,02,05,37,4.30
2013,04,02,05,38,4.30
2013,04,02,05,39,4.30
2013,04,02,05,40,4.20
2013,04,02,05,41,4.20
2013,04,02,05,42,4.10
2013,04,02,05,43,4.10
2013,04,02,05,44,4.10
2013,04,02,05,45,4.10
2013,04,02,05,46,4.10
2013,04,02,05,47,4.20
2013,04,02,05,48,4.20
2013,04,02,05,49,4.30
2013,04,02,05,50,4.30
2013,04,02,05,51,4.30
2013,04,02,05,52,4.20
2013,04,02,05,53,4.20
2013,04,02,05,54,4.20
2013,04,02,05,55,4.20
2013,04,02,05,56,4.20
2013,04,02,05,57,4.20
2013,04,02,05,58,4.20
2013,04,02,05,59,4.20
2013,04,02,06,00,4.20
2013,04,02,06,01,4.20
2013,04,02,06,02,4.30
2013,04,02,06,03,4.30
2013,04,02,06,04,4.30
2013,04,02,06,05,4.30
2013,04,02,06,06,4.40
2013,04,02,06,07,4.40
2013,04,02,06,08,4.40
2013,04,02,06,09,4.50
2013,04,02,06,10,4.60
2013,04,02,06,11,4.60
2013,04,02,06,12,4.60
2013,04,02,06,13,4.60
2013,04,02,06,14,4.60
2013,04,02,06,15,4.70
2013,04,02,06,16,4.70
2013,04,02,06,17,4.70
2013,04,02,06,18,4.70
2013,04,02,06,19,4.80
2013,04,02,06,20,4.80
2013,04,02,06,21,4.80
2013,04,02,06,22,4.90
2013,04,02,06,23,5.00
2013,04,02,06,24,5.00
2013,04,02,06,25,5.00
2013,04,02,06,26,5.10
2013,04,02,06,27,5.10
2013,04,02,06,28,5.20
2013,04,02,06,29,5.30
2013,04,02,06,30,5.40
2013,04,02,06,31,5.50
2013,04,02,06,32,5.60
2013,04,02,06,33,5.70
2013,04,02,06,34,5.80
2013,04,02,06,35,5.90
2013,04,02,06,36,5.90
2013,04,02,06,37,6.00
2013,04,02,06,38,6.10
2013,04,02,06,39,6.20
2013,04,02,06,40,6.20
2013,04,02,06,41,6.30
2013,04,02,06,42,6.30
2013,04,02,06,43,6.30
2013,04,02,06,44,6.40
2013,04,02,06,45,6.40
2013,04,02,06,46,6.40
2013,04,02,06,47,6.40
2013,04,02,06,48,6.50
2013,04,02,06,49,6.50
2013,04,02,06,50,6.50
2013,04,02,06,51,6.60
2013,04,02,06,52,6.60
2013,04,02,06,53,6.70
2013,04,02,06,54,6.70
2013,04,02,06,55,6.80
2013,04,02,06,56,6.80
2013,04,02,06,57,6.80
2013,04,02,06,58,6.90
2013,04,02,06,59,6.90
2013,04,02,07,00,6.90
2013,04,02,07,01,6.90
2013,04,02,07,02,6.90
2013,04,02,07,03,6.90
2013,04,02,07,04,6.90
2013,04,02,07,05,7.00
2013,04,02,07,06,7.00
2013,04,02,07,07,7.00
2013,04,02,07,08,7.00
2013,04,02,07,09,7.10
2013,04,02,07,10,7.10
2013,04,02,07,11,7.10
2013,04,02,07,12,7.10
2013,04,02,07,13,7.20
2013,04,02,07,14,7.20
2013,04,02,07,15,7.20
2013,04,02,07,16,7.20
2013,04,02,07,17,7.20
2013,04,02,07,18,7.20
2013,04,02,07,19,7.20
2013,04,02,07,20,7.20
2013,04,02,07,21,7.30
2013,04,02,07,22,7.30
2013,04,02,07,23,7.30
2013,04,02,07,24,7.30
2013,04,02,07,25,7.30
2013,04,02,07,26,7.30
2013,04,02,07,27,7.30
2013,04,02,07,28,7.30
2013,04,02,07,29,7.40
2013,04,02,07,30,7.40
2013,04,02,07,31,7.40
2013,04,02,07,32,7.40
2013,04,02,07,33,7.40
2013,04,02,07,34,7.40
2013,04,02,07,35,7.40
2013,04,02,07,36,7.40
2013,04,02,07,37,7.40
2013,04,02,07,38,7.40
2013,04,02,07,39,7.40
2013,04,02,07,40,7.40
2013,04,02,07,41,7.50
2013,04,02,07,42,7.50
2013,04,02,07,43,7.50
2013,04,02,07,44,7.60
2013,04,02,07,45,7.60
2013,04,02,07,46,7.60
2013,04,02,07,47,7.60
2013,04,02,07,48,7.60
2013,04,02,07,49,7.70
2013,04,02,07,50,7.70
2013,04,02,07,51,7.70
2013,04,02,07,52,7.70
2013,04,02,07,53,7.70
2013,04,02,07,54,7.70
2013,04,02,07,55,7.70
2013,04,02,07,56,7.70
2013,04,02,07,57,7.70
2013,04,02,07,58,7.70
2013,04,02,07,59,7.70
2013,04,02,08,00,7.70
2013,04,02,08,01,7.70
2013,04,02,08,02,7.80
2013,04,02,08,03,7.80
2013,04,02,08,04,7.80
2013,04,02,08,05,7.80
2013,04,02,08,06,7.80
2013,04,02,08,07,7.80
2013,04,02,08,08,7.80
2013,04,02,08,09,7.90
2013,04,02,08,10,7.90
2013,04,02,08,11,7.90
2013,04,02,08,12,7.90
2013,04,02,08,13,8.00
2013,04,02,08,14,8.00
2013,04,02,08,15,8.00
2013,04,02,08,16,8.10
2013,04,02,08,17,8.10
2013,04,02,08,18,8.10
2013,04,02,08,19,8.10
2013,04,02,08,20,8.10
2013,04,02,08,21,8.20
2013,04,02,08,22,8.20
2013,04,02,08,23,8.20
2013,04,02,08,24,8.20
2013,04,02,08,25,8.20
2013,04,02,08,26,8.20
2013,04,02,08,27,8.20
2013,04,02,08,28,8.20
2013,04,02,08,29,8.20
2013,04,02,08,30,8.20
2013,04,02,08,31,8.20
2013,04,02,08,32,8.20
2013,04,02,08,33,8.20
2013,04,02,08,34,8.30
2013,04,02,08,35,8.30
2013,04,02,08,36,8.30
2013,04,02,08,37,8.30
2013,04,02,08,38,8.30
2013,04,02,08,39,8.30
2013,04,02,08,40,8.30
2013,04,02,08,41,8.40
2013,04,02,08,42,8.40
2013,04,02,08,43,8.40
2013,04,02,08,44,8.40
2013,04,02,08,45,8.40
2013,04,02,08,46,8.50
2013,04,02,08,47,8.50
2013,04,02,08,48,8.50
2013,04,02,08,49,8.60
2013,04,02,08,50,8.60
2013,04,02,08,51,8.60
2013,04,02,08,52,8.70
2013,04,02,08,53,8.70
2013,04,02,08,54,8.70
2013,04,02,08,55,8.70
2013,04,02,08,56,8.70
2013,04,02,08,57,8.80
2013,04,02,08,58,8.80
2013,04,02,08,59,8.80
2013,04,02,09,00,8.90
2013,04,02,09,01,8.90
2013,04,02,09,02,8.90
2013,04,02,09,03,8.90
2013,04,02,09,04,9.00
2013,04,02,09,05,9.00
2013,04,02,09,06,9.00
2013,04,02,09,07,9.10
2013,04,02,09,08,9.10
2013,04,02,09,09,9.10
2013,04,02,09,10,9.10
2013,04,02,09,11,9.20
2013,04,02,09,12,9.20
2013,04,02,09,13,9.20
2013,04,02,09,14,9.20
2013,04,02,09,15,9.20
2013,04,02,09,16,9.20
2013,04,02,09,17,9.30
2013,04,02,09,18,9.30
2013,04,02,09,19,9.30
2013,04,02,09,20,9.30
2013,04,02,09,21,9.30
2013,04,02,09,22,9.40
2013,04,02,09,23,9.40
2013,04,02,09,24,9.40
2013,04,02,09,25,9.40
2013,04,02,09,26,9.40
2013,04,02,09,27,9.50
2013,04,02,09,28,9.50
2013,04,02,09,29,9.60
2013,04,02,09,30,9.60
2013,04,02,09,31,9.60
2013,04,02,09,32,9.50
2013,04,02,09,33,9.50
2013,04,02,09,34,9.50
2013,04,02,09,35,9.50
2013,04,02,09,36,9.50
2013,04,02,09,37,9.50
2013,04,02,09,38,9.50
2013,04,02,09,39,9.50
2013,04,02,09,40,9.50
2013,04,02,09,41,9.60
2013,04,02,09,42,9.60
2013,04,02,09,43,9.60
2013,04,02,09,44,9.60
2013,04,02,09,45,9.60
2013,04,02,09,46,9.60
2013,04,02,09,47,9.70
2013,04,02,09,48,9.70
2013,04,02,09,49,9.80
2013,04,02,09,50,9.80
2013,04,02,09,51,9.90
2013,04,02,09,52,9.90
2013,04,02,09,53,9.90
2013,04,02,09,54,9.90
2013,04,02,09,55,9.90
2013,04,02,09,56,9.90
2013,04,02,09,57,10.00
2013,04,02,09,58,10.00
2013,04,02,09,59,10.00
2013,04,02,10,00,10.10
2013,04,02,10,01,10.10
2013,04,02,10,02,10.10
2013,04,02,10,03,10.10
2013,04,02,10,04,10.20
2013,04,02,10,05,10.20
2013,04,02,10,06,10.20
2013,04,02,10,07,10.20
2013,04,02,10,08,10.30
2013,04,02,10,09,10.30
2013,04,02,10,10,10.30
2013,04,02,10,11,10.40
2013,04,02,10,12,10.40
2013,04,02,10,13,10.50
2013,04,02,10,14,10.50
2013,04,02,10,15,10.60
2013,04,02,10,16,10.60
2013,04,02,10,17,10.60
2013,04,02,10,18,10.70
2013,04,02,10,19,10.70
2013,04,02,10,20,10.70
2013,04,02,10,21,10.80
2013,04,02,10,22,10.80
2013,04,02,10,23,10.90
2013,04,02,10,24,10.90
2013,04,02,10,25,11.00
2013,04,02,10,26,11.00
2013,04,02,10,27,11.00
2013,04,02,10,28,11.10
2013,04,02,10,29,11.10
2013,04,02,10,30,11.10
2013,04,02,10,31,11.10
2013,04,02,10,32,11.10
2013,04,02,10,33,11.10
2013,04,02,10,34,11.20
2013,04,02,10,35,11.20
2013,04,02,10,36,11.20
2013,04,02,10,37,11.20
2013,04,02,10,38,11.30
2013,04,02,10,39,11.30
2013,04,02,10,40,11.30
2013,04,02,10,41,11.30
2013,04,02,10,42,11.30
2013,04,02,10,43,11.30
2013,04,02,10,44,11.20
2013,04,02,10,45,11.10
2013,04,02,10,46,10.90
2013,04,02,10,47,10.80
2013,04,02,10,48,10.70
2013,04,02,10,49,10.60
2013,04,02,10,50,10.60
2013,04,02,10,51,10.60
2013,04,02,10,52,10.50
2013,04,02,10,53,10.50
2013,04,02,10,54,10.40
2013,04,02,10,55,10.30
2013,04,02,10,56,10.20
2013,04,02,10,57,10.20
2013,04,02,10,58,10.20
2013,04,02,10,59,10.20
2013,04,02,11,00,10.20
2013,04,02,11,01,10.20
2013,04,02,11,02,10.20
2013,04,02,11,03,10.30
2013,04,02,11,04,10.40
2013,04,02,11,05,10.40
2013,04,02,11,06,10.50
2013,04,02,11,07,10.50
2013,04,02,11,08,10.60
2013,04,02,11,09,10.60
2013,04,02,11,10,10.70
2013,04,02,11,11,10.70
2013,04,02,11,12,10.80
2013,04,02,11,13,10.90
2013,04,02,11,14,10.90
2013,04,02,11,15,11.10
2013,04,02,11,16,11.20
2013,04,02,11,17,11.30
2013,04,02,11,18,11.40
2013,04,02,11,19,11.40
2013,04,02,11,20,11.40
2013,04,02,11,21,11.40
2013,04,02,11,22,11.30
2013,04,02,11,23,11.30
2013,04,02,11,24,11.20
2013,04,02,11,25,11.20
2013,04,02,11,26,11.20
2013,04,02,11,27,11.10
2013,04,02,11,28,11.10
2013,04,02,11,29,11.10
2013,04,02,11,30,11.00
2013,04,02,11,31,11.00
2013,04,02,11,32,11.00
2013,04,02,11,33,11.00
2013,04,02,11,34,11.00
2013,04,02,11,35,11.00
2013,04,02,11,36,11.00
2013,04,02,11,37,11.00
2013,04,02,11,38,11.10
2013,04,02,11,39,11.00
2013,04,02,11,40,11.00
2013,04,02,11,41,11.00
2013,04,02,11,42,11.10
2013,04,02,11,43,11.10
2013,04,02,11,44,11.10
2013,04,02,11,45,11.10
2013,04,02,11,46,11.10
2013,04,02,11,47,11.10
2013,04,02,11,48,11.10
2013,04,02,11,49,11.10
2013,04,02,11,50,11.10
2013,04,02,11,51,11.00
2013,04,02,11,52,11.00
2013,04,02,11,53,10.90
2013,04,02,11,54,10.90
2013,04,02,11,55,10.90
2013,04,02,11,56,10.90
2013,04,02,11,57,10.90
2013,04,02,11,58,10.90
2013,04,02,11,59,10.90
2013,04,02,12,00,10.90
2013,04,02,12,01,10.90
2013,04,02,12,02,10.90
2013,04,02,12,03,11.00
2013,04,02,12,04,11.00
2013,04,02,12,05,11.10
2013,04,02,12,06,11.10
2013,04,02,12,07,11.20
2013,04,02,12,08,11.20
2013,04,02,12,09,11.30
2013,04,02,12,10,11.40
2013,04,02,12,11,11.40
2013,04,02,12,12,11.50
2013,04,02,12,13,11.50
2013,04,02,12,14,11.60
2013,04,02,12,15,11.70
2013,04,02,12,16,11.70
2013,04,02,12,17,11.80
2013,04,02,12,18,11.70
2013,04,02,12,19,11.70
2013,04,02,12,20,11.70
2013,04,02,12,21,11.70
2013,04,02,12,22,11.70
2013,04,02,12,23,11.80
2013,04,02,12,24,11.80
2013,04,02,12,25,11.80
2013,04,02,12,26,11.80
2013,04,02,12,27,11.70
2013,04,02,12,28,11.70
2013,04,02,12,29,11.70
2013,04,02,12,30,11.70
2013,04,02,12,31,11.70
2013,04,02,12,32,11.70
2013,04,02,12,33,11.70
2013,04,02,12,34,11.80
2013,04,02,12,35,11.80
2013,04,02,12,36,11.80
2013,04,02,12,37,11.80
2013,04,02,12,38,11.80
2013,04,02,12,39,11.80
2013,04,02,12,40,11.80
2013,04,02,12,41,11.80
2013,04,02,12,42,11.80
2013,04,02,12,43,11.90
2013,04,02,12,44,12.00
2013,04,02,12,45,12.10
2013,04,02,12,46,12.10
2013,04,02,12,47,12.20
2013,04,02,12,48,12.20
2013,04,02,12,49,12.40
2013,04,02,12,50,12.50
2013,04,02,12,51,12.60
2013,04,02,12,52,12.60
2013,04,02,12,53,12.70
2013,04,02,12,54,12.80
2013,04,02,12,55,12.90
2013,04,02,12,56,13.00
2013,04,02,12,57,13.10
2013,04,02,12,58,13.10
2013,04,02,12,59,13.10
2013,04,02,13,00,13.20
2013,04,02,13,01,13.20
2013,04,02,13,02,13.20
2013,04,02,13,03,13.10
2013,04,02,13,04,13.00
2013,04,02,13,05,12.90
2013,04,02,13,06,12.80
2013,04,02,13,07,12.80
2013,04,02,13,08,12.80
2013,04,02,13,09,12.70
2013,04,02,13,10,12.60
2013,04,02,13,11,12.50
2013,04,02,13,12,12.60
2013,04,02,13,13,12.70
2013,04,02,13,14,12.70
2013,04,02,13,15,12.70
2013,04,02,13,16,12.70
2013,04,02,13,17,12.60
2013,04,02,13,18,12.70
2013,04,02,13,19,12.60
2013,04,02,13,20,12.60
2013,04,02,13,21,12.60
2013,04,02,13,22,12.60
2013,04,02,13,23,12.70
2013,04,02,13,24,12.70
2013,04,02,13,25,12.60
2013,04,02,13,26,12.60
2013,04,02,13,27,12.50
2013,04,02,13,28,12.40
2013,04,02,13,29,12.40
2013,04,02,13,30,12.30
2013,04,02,13,31,12.30
2013,04,02,13,32,12.20
2013,04,02,13,33,12.20
2013,04,02,13,34,12.20
2013,04,02,13,35,12.20
2013,04,02,13,36,12.20
2013,04,02,13,37,12.20
2013,04,02,13,38,12.20
2013,04,02,13,39,12.10
2013,04,02,13,40,12.10
2013,04,02,13,41,12.10
2013,04,02,13,42,12.10
2013,04,02,13,43,12.10
2013,04,02,13,44,12.10
2013,04,02,13,45,12.10
2013,04,02,13,46,12.10
2013,04,02,13,47,12.10
2013,04,02,13,48,12.10
2013,04,02,13,49,12.00
2013,04,02,13,50,12.00
2013,04,02,13,51,12.00
2013,04,02,13,52,12.00
2013,04,02,13,53,11.90
2013,04,02,13,54,11.90
2013,04,02,13,55,11.90
2013,04,02,13,56,11.80
2013,04,02,13,57,11.80
2013,04,02,13,58,11.80
2013,04,02,13,59,11.80
2013,04,02,14,00,11.80
2013,04,02,14,01,11.80
2013,04,02,14,02,11.80
2013,04,02,14,03,11.90
2013,04,02,14,04,11.90
2013,04,02,14,05,11.90
2013,04,02,14,06,12.00
2013,04,02,14,07,12.00
2013,04,02,14,08,12.00
2013,04,02,14,09,12.10
2013,04,02,14,10,12.10
2013,04,02,14,11,12.10
2013,04,02,14,12,12.10
2013,04,02,14,13,12.10
2013,04,02,14,14,12.20
2013,04,02,14,15,12.20
2013,04,02,14,16,12.20
2013,04,02,14,17,12.20
2013,04,02,14,18,12.20
2013,04,02,14,19,12.20
2013,04,02,14,20,12.20
2013,04,02,14,21,12.20
2013,04,02,14,22,12.20
2013,04,02,14,23,12.20
2013,04,02,14,24,12.20
2013,04,02,14,25,12.30
2013,04,02,14,26,12.30
2013,04,02,14,27,12.40
2013,04,02,14,28,12.40
2013,04,02,14,29,12.40
2013,04,02,14,30,12.40
2013,04,02,14,31,12.40
2013,04,02,14,32,12.40
2013,04,02,14,33,12.40
2013,04,02,14,34,12.40
2013,04,02,14,35,12.40
2013,04,02,14,36,12.40
2013,04,02,14,37,12.40
2013,04,02,14,38,12.40
2013,04,02,14,39,12.40
2013,04,02,14,40,12.40
2013,04,02,14,41,12.50
2013,04,02,14,42,12.50
2013,04,02,14,43,12.50
2013,04,02,14,44,12.60
2013,04,02,14,45,12.60
2013,04,02,14,46,12.60
2013,04,02,14,47,12.60
2013,04,02,14,48,12.60
2013,04,02,14,49,12.60
2013,04,02,14,50,12.60
2013,04,02,14,51,12.70
2013,04,02,14,52,12.70
2013,04,02,14,53,12.70
2013,04,02,14,54,12.60
2013,04,02,14,55,12.60
2013,04,02,14,56,12.60
2013,04,02,14,57,12.60
2013,04,02,14,58,12.60
2013,04,02,14,59,12.70
2013,04,02,15,00,12.80
2013,04,02,15,01,12.80
2013,04,02,15,02,12.80
2013,04,02,15,03,12.80
2013,04,02,15,04,12.70
2013,04,02,15,05,12.70
2013,04,02,15,06,12.70
2013,04,02,15,07,12.70
2013,04,02,15,08,12.80
2013,04,02,15,09,12.70
2013,04,02,15,10,12.70
2013,04,02,15,11,12.70
2013,04,02,15,12,12.70
2013,04,02,15,13,12.70
2013,04,02,15,14,12.80
2013,04,02,15,15,12.80
2013,04,02,15,16,12.80
2013,04,02,15,17,12.90
2013,04,02,15,18,12.90
2013,04,02,15,19,13.00
2013,04,02,15,20,13.00
2013,04,02,15,21,13.00
2013,04,02,15,22,12.90
2013,04,02,15,23,12.90
2013,04,02,15,24,12.90
2013,04,02,15,25,12.90
2013,04,02,15,26,13.00
2013,04,02,15,27,13.00
2013,04,02,15,28,13.00
2013,04,02,15,29,13.00
2013,04,02,15,30,12.90
2013,04,02,15,31,12.90
2013,04,02,15,32,12.90
2013,04,02,15,33,13.00
2013,04,02,15,34,13.00
2013,04,02,15,35,13.00
2013,04,02,15,36,13.00
2013,04,02,15,37,13.00
2013,04,02,15,38,13.00
2013,04,02,15,39,13.00
2013,04,02,15,40,13.00
2013,04,02,15,41,13.00
2013,04,02,15,42,12.90
2013,04,02,15,43,12.90
2013,04,02,15,44,12.80
2013,04,02,15,45,12.80
2013,04,02,15,46,12.80
2013,04,02,15,47,12.70
2013,04,02,15,48,12.70
2013,04,02,15,49,12.70
2013,04,02,15,50,12.70
2013,04,02,15,51,12.70
2013,04,02,15,52,12.70
2013,04,02,15,53,12.80
2013,04,02,15,54,12.80
2013,04,02,15,55,12.80
2013,04,02,15,56,12.80
2013,04,02,15,57,12.80
2013,04,02,15,58,12.80
2013,04,02,15,59,12.80
2013,04,02,16,00,12.80
2013,04,02,16,01,12.80
2013,04,02,16,02,12.80
2013,04,02,16,03,12.80
2013,04,02,16,04,12.70
2013,04,02,16,05,12.70
2013,04,02,16,06,12.70
2013,04,02,16,07,12.60
2013,04,02,16,08,12.60
2013,04,02,16,09,12.60
2013,04,02,16,10,12.60
2013,04,02,16,11,12.50
2013,04,02,16,12,12.50
2013,04,02,16,13,12.50
2013,04,02,16,14,12.50
2013,04,02,16,15,12.50
2013,04,02,16,16,12.60
2013,04,02,16,17,12.60
2013,04,02,16,18,12.60
2013,04,02,16,19,12.70
2013,04,02,16,20,12.70
2013,04,02,16,21,12.70
2013,04,02,16,22,12.80
2013,04,02,16,23,12.70
2013,04,02,16,24,12.70
2013,04,02,16,25,12.70
2013,04,02,16,26,12.70
2013,04,02,16,27,12.60
2013,04,02,16,28,12.50
2013,04,02,16,29,12.50
2013,04,02,16,30,12.40
2013,04,02,16,31,12.30
2013,04,02,16,32,12.30
2013,04,02,16,33,12.30
2013,04,02,16,34,12.40
2013,04,02,16,35,12.40
2013,04,02,16,36,12.50
2013,04,02,16,37,12.50
2013,04,02,16,38,12.50
2013,04,02,16,39,12.50
2013,04,02,16,40,12.50
2013,04,02,16,41,12.40
2013,04,02,16,42,12.40
2013,04,02,16,43,12.30
2013,04,02,16,44,12.30
2013,04,02,16,45,12.20
2013,04,02,16,46,12.20
2013,04,02,16,47,12.10
2013,04,02,16,48,12.10
2013,04,02,16,49,12.00
2013,04,02,16,50,12.00
2013,04,02,16,51,11.90
2013,04,02,16,52,11.90
2013,04,02,16,53,11.80
2013,04,02,16,54,11.80
2013,04,02,16,55,11.80
2013,04,02,16,56,11.80
2013,04,02,16,57,11.80
2013,04,02,16,58,11.80
2013,04,02,16,59,11.80
2013,04,02,17,00,11.80
2013,04,02,17,01,11.80
2013,04,02,17,02,11.80
2013,04,02,17,03,11.80
2013,04,02,17,04,11.80
2013,04,02,17,05,11.80
2013,04,02,17,06,11.80
2013,04,02,17,07,11.80
2013,04,02,17,08,11.80
2013,04,02,17,09,11.80
2013,04,02,17,10,11.80
2013,04,02,17,11,11.80
2013,04,02,17,12,11.80
2013,04,02,17,13,11.70
2013,04,02,17,14,11.70
2013,04,02,17,15,11.60
2013,04,02,17,16,11.60
2013,04,02,17,17,11.60
2013,04,02,17,18,11.50
2013,04,02,17,19,11.50
2013,04,02,17,20,11.50
2013,04,02,17,21,11.50
2013,04,02,17,22,11.50
2013,04,02,17,23,11.50
2013,04,02,17,24,11.50
2013,04,02,17,25,11.50
2013,04,02,17,26,11.40
2013,04,02,17,27,11.40
2013,04,02,17,28,11.40
2013,04,02,17,29,11.30
2013,04,02,17,30,11.30
2013,04,02,17,31,11.40
2013,04,02,17,32,11.40
2013,04,02,17,33,11.40
2013,04,02,17,34,11.30
2013,04,02,17,35,11.30
2013,04,02,17,36,11.30
2013,04,02,17,37,11.20
2013,04,02,17,38,11.20
2013,04,02,17,39,11.20
2013,04,02,17,40,11.20
2013,04,02,17,41,11.20
2013,04,02,17,42,11.20
2013,04,02,17,43,11.20
2013,04,02,17,44,11.20
2013,04,02,17,45,11.20
2013,04,02,17,46,11.20
2013,04,02,17,47,11.20
2013,04,02,17,48,11.20
2013,04,02,17,49,11.20